FW3705 Weather Reports


time (UTC)temp
F
wind
direction
speed
knots
gust
knots
rain 1hr
in
rain 24hr
in
rain mn
in
humidity
%
barometer
mb
20260505064513 55 171 0.0 0.0 0.00 0.00 0.00 53 1014.2
20260505063012 55 223 0.0 0.0 0.00 0.00 0.00 52 1014.2
20260505061523 55 223 0.0 0.9 0.00 0.00 0.00 51 1014.3
20260505060007 56 219 0.0 0.0 0.00 0.00 0.00 50 1014.4
20260505054513 56 225 0.0 0.0 0.00 0.00 0.00 49 1014.3
20260505053006 56 213 0.0 0.0 0.00 0.00 0.00 48 1014.3
20260505051504 56 203 0.0 0.9 0.00 0.00 0.00 48 1014.3
20260505041557 57 248 0.0 0.9 0.00 0.00 0.00 45 1014.4
20260505040059 58 167 0.0 2.6 0.00 0.00 0.00 44 1014.4
20260505034554 58 241 0.0 4.3 0.00 0.00 0.00 43 1014.4
20260505033055 58 252 0.0 5.2 0.00 0.00 0.00 42 1014.2
20260505031556 59 202 0.0 5.2 0.00 0.00 0.00 41 1014.3
20260505030052 59 216 0.0 4.3 0.00 0.00 0.00 39 1014.2
20260505024607 59 190 0.0 3.5 0.00 0.00 0.00 38 1014.2
20260505023051 60 222 0.0 2.6 0.00 0.00 0.00 37 1014.2
20260505021606 60 209 0.0 5.2 0.00 0.00 0.00 37 1014.2
20260505020049 60 181 0.0 5.2 0.00 0.00 0.00 36 1014.3
20260505014549 61 108 0.0 4.3 0.00 0.00 0.00 35 1014.2
20260505013048 61 154 0.0 3.5 0.00 0.00 0.00 35 1013.9
20260505011555 61 205 0.0 6.1 0.00 0.00 0.00 34 1013.5
20260505010048 61 279 0.9 7.0 0.00 0.00 0.00 34 1013.3
20260505004549 62 205 0.0 1.7 0.00 0.00 0.00 35 1013.1
20260505003047 63 225 0.0 4.3 0.00 0.00 0.00 33 1012.8
20260505001547 64 180 0.0 7.8 0.00 0.00 0.00 31 1012.2
20260505000046 65 101 0.0 7.8 0.00 0.00 0.00 30 1011.8
20260504234545 66 101 0.9 7.8 0.00 0.00 0.00 29 1011.6
20260504233056 67 200 1.7 6.1 0.00 0.00 0.00 27 1011.4
20260504231544 68 221 1.7 12.2 0.00 0.00 0.00 26 1011.0
20260504230043 69 224 1.7 10.4 0.00 0.00 0.00 23 1010.7
20260504224540 71 235 1.7 7.0 0.00 0.00 0.00 20 1010.4
20260504223043 71 258 1.7 7.8 0.00 0.00 0.00 18 1010.3
20260504221546 71 201 0.0 7.0 0.00 0.00 0.00 18 1010.3
20260504220056 72 296 1.7 7.8 0.00 0.00 0.00 17 1010.2
20260504214542 71 218 1.7 9.6 0.00 0.00 0.00 17 1010.3
20260504213038 72 206 3.5 10.4 0.00 0.00 0.00 16 1010.2
20260504211538 72 228 0.9 7.8 0.00 0.00 0.00 17 1010.1
20260504210036 72 203 0.9 7.0 0.00 0.00 0.00 15 1010.4
20260504204553 72 221 1.7 8.7 0.00 0.00 0.00 15 1010.3
20260504203037 72 229 2.6 7.8 0.00 0.00 0.00 14 1010.3
20260504201535 73 263 1.7 9.6 0.00 0.00 0.00 14 1010.5
20260504200041 73 200 0.9 9.6 0.00 0.00 0.00 14 1010.4
20260504194538 72 103 1.7 10.4 0.00 0.00 0.00 14 1010.5
20260504193031 72 278 1.7 10.4 0.00 0.00 0.00 15 1010.5
20260504191530 72 190 0.0 10.4 0.00 0.00 0.00 15 1010.6
20260504190035 72 260 6.1 13.0 0.00 0.00 0.00 14 1010.8
20260504184533 71 259 1.7 12.2 0.00 0.00 0.00 16 1010.8
20260504183025 71 256 2.6 12.2 0.00 0.00 0.00 16 1010.9
20260504181524 72 236 4.3 13.9 0.00 0.00 0.00 14 1011.0
20260504180021 71 215 5.2 13.0 0.00 0.00 0.00 16 1011.2
20260504174518 70 229 3.5 15.6 0.00 0.00 0.00 16 1011.4
20260504173017 70 267 5.2 18.2 0.00 0.00 0.00 16 1011.5
20260504171516 69 210 3.5 16.5 0.00 0.00 0.00 17 1011.3
20260504081557 47 261 0.0 0.0 0.00 0.00 0.00 40 1014.5